EHI
0 0 0 0 0 0 0 0 0 0 0 0 0 0 0 0 0 0 0 0 0 0 0 0 0 0 0 0 0 0 0 0 0 0 0 0 0 0 0 0 0 0 0 0 0 0 0 0 0
0 0 0 0 0 0 0 0 0 0 0 0 0 0 0 0 0 0 0 0 0 0 0 0 0 0 0 0 0 0 0 0 0 0 0 0 0 0 0 0 0 0 0 0 0 0 0 0 0
0 0 0 0 0 0 0 0 0 0 0 0 0 0 0 0 0 0 0 0 0 0 0 0 0 0 0 0 0 0 0 0 0 0 0 0 0 0 0 0 0 0 0 0 0 0 0 0 0
0 0 0 0 0 0 0 0 0 0 0 0 0 0 0 0 0 0 0 0 0 0 0 0 0 0 0 0 0 0 0 0 0 0 0 0 0 0 0 0 0 0 0 0 0 0 0 0 0
0 0 0 0 0 0 0 0 0 0 0 0 0 0 0 0 0 0 0 0 0 0 0 0 0 0 0 0 0 0 0 0 0 0 0 0 0 0 0 0 0 0 0 0 0 0 0 0 0
0 0 0 0 0 0 0 0 0 0 0 0 0 0 0 0 0 0 0 0 0 0 0 0 0 0 0 0 0 0 0 0 0 0 0 0 0 0 0 0 0 0 0 0 0 0 0 0 0
0 0 0 0 0 0 0 0 0 0 0 0 0 0 0 0 0 0 0 0 0 0 0 0 0 0 0 0 0 0 0 0 0 0 0 0 0 0 0 0 0 0 0 0 0 0 0 0 0
0 0 0 0 0 0 0 0 0 0 0 0 0 0 0 0 0 0 0 0 0 0 0 0 0 0 0 0 0 0 0 0 0 0 0 0 0 0 0 0 0 0 0 0 0 0 0 0 0
0 0 0 0 0 0 0 0 0 0 0 0 0 0 0 0 0 0 0 0 0 0 0 0 0 0 0 0 0 0 0 0 0 0 0 0 0 0 0 0 0 0 0 0 0 0 0 0 0
0 0 0 0 0 0 0 0 0 0 0 0 0 0 0 0 0 0 0 0 0 0 0 0 0 0 0 0 0 0 0 0 0 0 0 0 0 0 0 0 0 0 0 0 0 0 0 0 0
0 0 0 0 0 0 0 0 0 0 0 0 0 0 0 0 0 0 0 0 0 0 0 0 0 0 0 0 0 0 0 0 0 0 0 0 0 0 0 0 0 0 0 0 0 0 0 0 0
0 0 0 0 0 0 0 0 0 0 0 0 0 0 0 0 0 0 0 0 0 0 0 0 0 0 0 0 0 0 0 0 0 0 0 0 0 0 0 0 0 0 0 0 0 0 0 0 0
0 0 0 0 0 0 0 0 0 0 0 0 0 0 0 0 0 0 0 0 0 0 0 0 0 0 0 0 0 0 0 0 0 0 0 0 0 0 0 0 0 0 0 0 0 0 0 0 0
0 0 0 0 0 0 0 0 0 0 0 0 0 0 0 0 0 0 0 0 0 0 0 0 0 0 0 0 0 0 0 0 0 0 0 0 0 0 0 0 0 0 0 0 0 0 0 0 0
0 0 0 0 0 0 0 0 0 0 0 0 0 0 0 0 0 0 0 0 0 0 0 0 0 0 0 0 0 0 0 0 0 0 0 0 0 0 0 0 0 0 0 0 0 0 0 0 0
0 0 0 0 0 0 0 0 0 0 0 0 0 0 0 0 0 0 0 0 0 0 0 0 0 0 0 0 0 0 0 0 0 0 0 0 0 0 0 0 0 0 0 0 0 0 0 0 0
0 0 0 0 0 0 0 0 0 0 0 0 0 0 0 0 0 0 0 0 0 0 0 0 0 0 0 0 0 0 0 0 0 0 0 0 0 0 0 0 0 0 0 0 0 0 0 0 0
0 0 0 0 0 0 0 0 0 0 0 0 0 0 0 0 0 0 0 0 0 0 0 0 0 0 0 0 0 0 0 0 0 0 0 0 0 0 0 0 0 0 0 0 0 0 0 0 0
0 0 0 0 0 0 0 0 0 0 0 0 0 0 0 0 0 0 0 0 0 0 0 0 0 0 0 0 0 0 0 0 0 0 0 0 0 0 0 0 0 0 0 0 0 0 0 0 0
0 0 0 0 0 0 0 0 0 0 0 0 0 0 0 0 0 0 0 0 0 0 0 0 0 0 0 0 0 0 0 0 0 0 0 0 0 0 0 0 0 0 0 0 0 0 0 0 0
0 0 0 0 0 0 0 0 0 0 0 0 0 0 0 0 0 0 0 0 0 0 0 0 0 0 0 0 0 0 0 0 0 0 0 0 0 0 0 0 0 0 0 0 0 0 0 0 0
0 0 0 0 0 0 0 0 0 0 0 0 0 0 0 0 0 0 0 0 0 0 0 0 0 0 0 0 0 0 0 0 0 0 0 0 0 0 0 0 0 0 0 0 0 0 0 0 0
0 0 0 0 0 0 0 0 0 0 0 0 0 0 0 0 0 0 0 0 0 0 0 0 0 0 0 0 0 0 0 0 0 0 0 0 0 0 0 0 0 0 0 0 0 0 0 0 0
0 0 0 0 0 0 0 0 0 0 0 0 0 0 0 0 0 0 0 0 0 0 0 0 0 0 0 0 0 0 0 0 0 0 0 0 0 0 0 0 0 0 0 0 0 0 0 0 0
0 0 0 0 0 0 0 0 0 0 0 0 0 0 0 0 0 0 0 0 0 0 0 0 0 0 0 0 0 0 0 0 0 0 0 0 0 0 0 0 0 0 0 0 0 0 0 0 0
0 0 0 0 0 0 0 0 0 0 0 0 0 0 0 0 0 0 0 0 0 0 0 0 0 0 0 0 0 0 0 0 0 0 0 0 0 0 0 0 0 0 0 0 0 0 0 0 0
0 0 0 0 0 0 0 0 0 0 0 0 0 0 0 0 0 0 0 0 0 0 0 0 0 0 0 0 0 0 0 0 0 0 0 0 0 0 0 0 0 0 0 0 0 0 0 0 0
0 0 0 0 0 0 0 0 0 0 0 0 0 0 0 0 0 0 0 0 0 0 0 0 0 0 0 0 0 0 0 0 0 0 0 0 0 0 0 0 0 0 0 0 0 0 0 0 0
0 0 0 0 0 0 0 0 0 0 0 0 0 0 0 0 0 0 0 0 0 0 0 0 0 0 0 0 0 0 0 0 0 0 0 0 0 0 0 0 0 0 0 0 0 0 0 0 0
0 0 0 0 0 0 0 0 0 0 0 0 0 0 0 0 0 0 0 0 0 0 0 0 0 0 0 0 0 0 0 0 0 0 0 0 0 0 0 0 0 0 0 0 0 0 0 0 0
Wind_Speed
11 6 3 3 3 2 3 3 2 4 3 2 2 2 1 0 2 4 5 9 11 13 13 13 11 13 13 13 12 12 11 11 11 11 11 11 11 11 12 12 11 12 12 13 12 12 12 12 12
9 5 3 2 3 3 4 4 4 3 4 5 4 2 2 2 3 5 7 10 12 13 12 13 12 13 13 13 12 12 11 11 11 11 11 11 11 11 11 11 11 11 11 11 11 11 11 11 11
6 3 2 1 2 2 4 4 4 4 5 3 3 1 1 3 4 5 7 12 12 12 11 12 11 13 13 12 12 11 11 11 11 10 10 10 10 10 10 10 10 10 10 10 10 10 10 10 10
4 1 1 2 3 1 2 4 4 7 5 2 3 4 3 3 2 5 10 12 12 12 11 12 11 12 13 12 11 11 11 11 11 10 10 10 10 9 9 9 9 9 9 9 9 9 9 8 8
2 2 2 3 3 2 1 2 5 6 5 4 3 3 5 3 3 7 11 12 12 11 11 12 10 11 11 11 11 11 11 11 11 10 10 10 9 9 9 9 9 8 8 8 8 8 7 7 7
1 2 5 6 5 3 3 3 5 5 4 4 4 4 5 4 5 8 11 11 11 11 10 11 10 9 9 10 10 9 10 10 10 10 10 9 9 9 9 8 8 8 7 7 7 6 6 6 6
2 3 5 6 5 5 3 4 6 6 5 4 4 4 5 6 6 8 10 10 10 10 10 10 11 10 9 8 8 8 8 8 8 9 8 8 8 8 7 7 7 8 7 6 6 5 5 5 5
1 3 6 7 8 6 4 4 3 5 3 3 3 3 4 7 8 9 9 9 9 9 9 9 10 10 10 10 8 7 7 8 8 8 7 7 7 7 6 7 7 7 7 6 6 5 5 4 4
2 6 8 9 8 6 5 5 3 1 3 3 2 1 4 8 10 10 8 8 8 8 9 9 9 9 9 9 9 8 7 7 8 8 8 7 7 7 7 7 6 6 6 6 6 6 5 4 4
4 7 9 5 5 5 6 5 5 6 6 5 5 3 4 9 11 12 11 12 11 11 10 9 10 10 9 7 7 7 7 8 8 7 9 7 6 5 5 6 5 5 5 6 6 5 5 5 4
6 7 5 5 4 3 5 4 4 6 7 7 6 7 8 10 11 12 12 12 12 11 11 10 10 10 9 7 6 5 5 6 7 9 9 7 6 5 5 5 6 6 7 6 6 6 5 4 3
6 6 5 4 3 4 5 4 5 8 5 1 2 5 9 12 13 13 13 12 11 11 12 11 11 10 10 8 7 7 6 6 6 8 9 7 5 6 6 5 5 5 5 5 5 4 5 5 5
9 6 6 5 4 5 5 7 6 9 7 3 3 6 10 12 13 12 11 11 11 12 12 12 12 12 10 9 7 7 7 7 8 7 8 9 7 7 7 6 6 6 5 6 6 6 6 6 7
7 7 5 6 7 5 7 9 8 11 7 6 7 9 10 11 12 11 12 12 13 13 12 11 12 12 11 10 9 8 8 8 8 8 10 11 8 7 7 7 7 7 7 6 6 7 7 6 6
4 6 8 8 8 5 5 12 15 12 8 10 10 10 10 11 11 13 13 13 12 12 12 12 12 12 12 12 11 9 8 8 8 8 10 11 10 9 8 7 7 7 7 8 7 8 7 7 7
6 8 11 9 10 8 9 17 13 10 11 13 12 11 11 11 12 13 13 12 12 11 12 12 9 12 13 12 11 9 9 9 8 8 9 12 12 11 9 8 8 8 7 7 7 7 7 7 7
9 12 14 10 10 9 13 14 9 7 11 13 13 12 11 12 13 13 13 13 12 12 11 12 12 12 12 12 10 10 9 9 9 9 9 11 12 13 10 9 8 9 7 7 7 7 7 7 8
13 14 13 14 8 12 15 16 13 9 11 14 14 14 13 14 15 14 12 11 11 11 11 11 11 12 11 9 9 8 9 9 9 9 10 12 11 13 11 9 10 9 8 8 8 9 8 7 7
11 13 14 11 7 10 17 19 18 15 14 16 16 16 16 17 16 13 11 10 10 10 11 12 12 11 10 8 8 8 9 9 9 10 11 12 12 12 12 9 10 9 9 10 10 9 9 8 6
13 14 14 8 6 9 14 20 19 18 19 18 19 18 18 17 15 13 12 10 10 11 11 11 12 12 12 10 9 8 8 8 9 8 10 12 12 12 11 12 10 10 9 11 11 10 7 7 7
19 18 16 10 3 7 10 17 19 17 17 18 19 19 19 18 17 15 12 11 10 11 11 10 12 12 12 12 9 7 7 6 7 9 9 12 13 13 12 13 11 10 10 9 11 10 11 9 7
19 16 14 12 9 8 8 14 15 15 16 17 18 18 19 18 17 15 13 12 10 10 9 10 11 11 11 11 11 12 10 10 11 9 8 10 12 13 13 13 12 11 10 10 10 11 10 10 8
11 8 12 13 13 13 13 13 14 10 16 18 18 18 18 16 15 14 12 10 9 8 8 8 9 10 10 11 12 13 12 10 8 8 9 9 9 11 12 12 11 11 10 11 11 10 11 9 10
8 6 6 9 9 16 20 18 17 13 17 15 15 14 14 12 11 11 10 8 8 6 6 7 8 8 8 10 11 13 13 12 10 9 8 8 7 8 11 11 11 11 10 11 11 10 12 11 11
12 9 7 9 11 14 13 16 17 10 13 15 14 12 11 9 8 8 7 7 6 6 5 6 7 8 7 8 10 11 13 12 12 10 9 8 7 7 9 9 10 9 10 10 10 10 10 11 12
19 17 12 11 11 10 11 17 12 6 10 11 11 9 8 7 6 6 6 6 6 5 5 5 6 6 6 7 8 8 9 8 7 9 8 8 6 7 7 8 8 9 9 9 9 8 9 9 11
16 18 16 9 6 8 11 13 12 6 8 10 11 10 9 8 7 6 6 6 5 5 5 5 5 5 5 6 6 7 7 7 7 7 7 6 6 5 7 7 7 8 8 8 8 7 9 8 9
15 12 9 12 11 15 14 18 14 10 13 12 11 10 8 7 6 6 5 4 4 4 4 4 4 4 4 4 4 4 5 6 6 5 6 6 6 6 6 6 7 7 7 7 7 7 8 9 9
15 17 13 10 10 12 15 14 8 11 12 12 12 10 8 8 7 5 4 3 3 2 2 2 3 3 3 3 3 3 3 3 4 4 4 5 5 5 5 5 5 5 6 6 6 7 7 9 9
17 19 19 14 13 12 14 16 3 7 8 8 9 7 6 6 5 5 4 3 2 2 2 2 1 2 2 2 2 2 2 2 2 2 2 2 3 3 4 4 4 5 5 5 5 7 7 8 9
Wind_Direction
325 324 268 244 218 160 120 122 139 143 147 116 137 188 199 16 351 59 96 146 143 146 148 150 148 146 143 141 139 137 136 134 132 130 126 123 121 120 116 113 111 108 105 101 98 97 97 93 88
326 314 262 258 231 183 138 147 164 142 113 126 138 164 171 115 53 96 137 149 150 149 152 153 145 147 146 145 144 143 142 140 137 133 130 127 124 122 120 116 114 112 110 107 104 101 99 97 92
319 311 310 235 213 199 138 148 145 122 138 171 150 150 50 88 115 135 140 152 152 151 154 146 149 150 150 149 149 147 146 145 142 138 137 134 130 126 126 123 120 118 115 111 109 106 103 101 97
311 270 252 222 167 135 128 139 147 148 158 181 178 145 119 62 104 131 144 156 155 154 156 150 155 154 154 154 154 152 151 148 145 142 141 140 136 133 129 129 126 123 121 117 114 110 105 104 101
315 282 209 193 177 151 163 158 174 173 168 166 193 148 128 104 113 140 153 160 159 158 159 156 157 157 157 159 159 158 157 155 152 148 146 144 144 141 138 136 134 132 129 124 120 116 112 111 106
290 239 218 205 185 176 176 179 184 185 167 164 189 158 121 116 144 150 158 164 163 161 161 160 157 159 160 161 163 163 162 160 158 155 154 154 153 153 150 147 146 144 140 134 129 122 119 117 114
256 222 222 209 195 197 179 175 196 187 183 173 186 168 134 148 149 154 161 164 165 165 167 169 170 169 166 165 165 165 165 163 161 159 157 158 159 159 156 154 156 155 153 148 142 136 131 127 122
298 220 207 206 206 203 173 175 199 207 173 120 199 198 139 148 147 153 158 166 168 173 177 176 178 179 179 176 170 170 169 168 164 160 158 158 161 164 160 170 165 166 164 162 158 155 151 143 134
242 223 218 208 208 197 173 182 159 192 156 157 191 9 61 131 148 155 163 174 179 185 188 186 185 186 186 185 175 179 176 175 173 172 165 175 187 184 180 186 171 174 172 173 172 170 157 156 150
208 225 225 217 216 194 175 194 169 180 185 183 178 150 131 152 166 174 182 188 191 194 195 194 193 191 191 188 187 192 192 190 196 194 187 195 198 195 196 169 181 183 181 185 185 179 177 208 203
203 226 224 214 212 209 190 192 188 206 207 204 193 171 161 172 183 192 197 199 201 200 198 199 199 197 195 192 195 196 197 198 202 202 200 200 200 197 203 195 188 198 200 207 193 202 218 224 233
204 221 222 214 195 204 212 202 206 222 227 161 201 170 175 188 197 202 206 207 206 207 206 203 202 202 201 201 200 200 201 202 204 203 205 204 204 207 206 210 208 207 209 215 220 222 227 232 235
211 211 219 225 214 226 225 226 234 234 232 231 214 192 198 203 209 213 215 214 213 214 213 208 206 206 204 204 207 207 207 208 208 206 207 210 211 211 212 213 213 216 217 218 223 229 231 234 237
211 212 215 224 224 224 232 241 235 238 225 226 221 217 215 215 217 216 217 218 216 217 217 213 209 209 208 208 210 211 212 211 213 211 211 212 216 215 215 218 218 220 220 224 229 234 238 240 243
191 211 227 225 219 219 227 244 232 236 226 231 232 232 230 228 224 224 222 222 222 221 219 217 214 212 212 214 215 215 214 213 214 215 215 214 217 219 219 221 221 222 221 223 230 235 239 244 245
190 217 229 215 209 203 213 247 237 229 227 236 238 238 238 237 235 234 233 230 228 225 222 220 214 215 215 216 216 217 217 215 217 217 216 217 218 220 220 223 225 223 220 221 226 231 234 239 244
201 218 224 218 207 201 215 248 249 226 226 238 240 241 243 247 245 241 237 233 230 227 224 221 218 218 218 217 218 219 219 219 219 219 219 218 218 219 220 223 226 222 222 223 225 229 234 243 246
204 215 221 222 199 207 222 239 241 232 237 244 247 248 248 250 250 247 242 236 232 229 226 223 220 221 219 216 218 219 221 222 222 221 221 220 219 218 220 225 226 221 222 224 224 228 231 241 252
221 220 225 228 205 214 234 244 247 244 244 248 250 250 250 250 254 252 245 237 232 229 226 224 222 220 214 210 210 213 219 220 221 223 223 221 221 219 219 222 224 219 222 225 225 226 232 234 234
223 229 233 235 217 231 252 255 254 249 247 247 250 250 250 252 251 248 245 237 231 230 228 227 225 221 215 213 211 215 219 220 222 221 222 222 221 221 220 223 223 220 223 228 227 223 229 232 214
225 228 229 227 226 239 267 263 249 244 242 245 246 248 250 250 252 250 243 240 235 234 231 227 226 224 220 216 214 214 220 225 221 221 221 220 221 221 221 224 225 224 222 228 227 223 227 235 226
230 228 233 234 235 243 234 268 252 239 237 236 240 242 245 247 248 249 247 244 240 239 237 233 230 226 223 215 213 211 213 220 224 222 221 222 220 222 223 225 226 227 226 230 230 226 227 232 236
228 212 222 232 239 251 236 255 261 228 239 239 238 240 244 246 246 246 247 248 248 244 237 234 232 228 223 216 215 215 222 228 232 226 225 225 221 222 224 225 226 228 229 232 233 229 228 229 235
205 193 221 233 236 245 237 239 261 228 235 239 237 238 240 240 239 242 247 248 250 249 240 236 232 231 227 220 217 217 221 225 228 228 226 224 223 222 224 224 226 229 231 234 235 234 232 232 236
198 193 208 213 218 239 223 229 252 237 230 233 234 233 235 234 236 242 247 248 250 253 248 240 236 235 228 222 220 221 224 225 226 228 228 226 223 223 226 225 228 230 233 236 237 236 236 235 237
203 205 213 223 229 234 212 232 249 234 234 236 240 242 243 244 241 241 247 251 251 249 248 243 239 242 236 225 223 225 227 228 230 230 229 227 228 229 230 228 231 233 234 236 235 237 239 240 240
205 215 226 247 262 256 233 242 254 237 238 235 237 238 238 236 237 242 248 253 254 251 248 246 242 241 241 233 226 224 221 224 228 229 229 231 231 231 228 226 227 231 234 237 236 237 239 241 243
218 207 205 218 232 242 243 241 241 214 217 221 226 228 230 233 235 243 250 254 255 259 261 255 247 242 243 239 232 231 227 224 226 225 224 226 230 230 228 226 228 232 234 236 239 244 244 244 246
203 210 214 220 227 236 249 247 236 227 217 218 219 223 228 229 234 243 249 250 252 256 261 256 249 248 250 243 231 218 223 224 224 224 227 228 229 228 228 228 230 235 238 240 241 245 252 253 254
221 218 214 220 225 232 249 255 222 221 217 220 226 230 235 237 241 246 248 245 244 248 261 264 265 258 259 254 238 223 217 212 208 215 227 232 234 232 232 232 232 236 240 242 247 251 254 257 260